Index of /20260413/WXO-DD/model_gdps/15km/12/177
Name Last modified Size Description
Parent Directory -
20260413T12Z_MSC_GDPS_AirTemp_AGL-120m_LatLon0.15_PT177H.grib2 2026-04-13 16:50 911K
20260413T12Z_MSC_GDPS_AirTemp_AGL-2m_LatLon0.15_PT177H.grib2 2026-04-13 16:50 1.0M
20260413T12Z_MSC_GDPS_AirTemp_AGL-40m_LatLon0.15_PT177H.grib2 2026-04-13 16:50 936K
20260413T12Z_MSC_GDPS_AirTemp_AGL-80m_LatLon0.15_PT177H.grib2 2026-04-13 16:50 923K
20260413T12Z_MSC_GDPS_AirTemp_IsbL-0001_LatLon0.15_PT177H.grib2 2026-04-13 16:50 708K
20260413T12Z_MSC_GDPS_AirTemp_IsbL-0005_LatLon0.15_PT177H.grib2 2026-04-13 16:50 690K
20260413T12Z_MSC_GDPS_AirTemp_IsbL-0500_LatLon0.15_PT177H.grib2 2026-04-13 16:50 1.0M
20260413T12Z_MSC_GDPS_AirTemp_IsbL-0700_LatLon0.15_PT177H.grib2 2026-04-13 16:50 952K
20260413T12Z_MSC_GDPS_AirTemp_IsbL-0850_LatLon0.15_PT177H.grib2 2026-04-13 16:50 1.1M
20260413T12Z_MSC_GDPS_AirTemp_IsbL-0925_LatLon0.15_PT177H.grib2 2026-04-13 16:50 1.1M
20260413T12Z_MSC_GDPS_AirTemp_IsbL-1000_LatLon0.15_PT177H.grib2 2026-04-13 16:50 1.1M
20260413T12Z_MSC_GDPS_Albedo_Sfc_LatLon0.15_PT177H.grib2 2026-04-13 16:50 247K
20260413T12Z_MSC_GDPS_ConvectivePrecip-Accum_Sfc_LatLon0.15_PT177H.grib2 2026-04-13 16:50 3.5M
20260413T12Z_MSC_GDPS_DewPointDepression_AGL-2m_LatLon0.15_PT177H.grib2 2026-04-13 16:50 754K
20260413T12Z_MSC_GDPS_DewPointDepression_IsbL-0500_LatLon0.15_PT177H.grib2 2026-04-13 16:50 1.0M
20260413T12Z_MSC_GDPS_DewPointDepression_IsbL-0700_LatLon0.15_PT177H.grib2 2026-04-13 16:50 1.1M
20260413T12Z_MSC_GDPS_DewPointDepression_IsbL-0850_LatLon0.15_PT177H.grib2 2026-04-13 16:50 1.2M
20260413T12Z_MSC_GDPS_DewPointDepression_IsbL-0925_LatLon0.15_PT177H.grib2 2026-04-13 16:50 1.0M
20260413T12Z_MSC_GDPS_DewPointDepression_IsbL-1000_LatLon0.15_PT177H.grib2 2026-04-13 16:50 1.0M
20260413T12Z_MSC_GDPS_DewPoint_AGL-2m_LatLon0.15_PT177H.grib2 2026-04-13 16:50 614K
20260413T12Z_MSC_GDPS_DownwardLongwaveRadiationFlux-Accum_Sfc_LatLon0.15_PT177H.grib2 2026-04-13 16:50 645K
20260413T12Z_MSC_GDPS_DownwardShortwaveRadiationFlux-Accum_Sfc_LatLon0.15_PT177H.grib2 2026-04-13 16:50 851K
20260413T12Z_MSC_GDPS_FreezingRain-Accum_Sfc_LatLon0.15_PT177H.grib2 2026-04-13 16:50 339K
20260413T12Z_MSC_GDPS_GeopotentialHeight_IsbL-0001_LatLon0.15_PT177H.grib2 2026-04-13 16:50 400K
20260413T12Z_MSC_GDPS_GeopotentialHeight_IsbL-0005_LatLon0.15_PT177H.grib2 2026-04-13 16:50 503K
20260413T12Z_MSC_GDPS_GeopotentialHeight_IsbL-0500_LatLon0.15_PT177H.grib2 2026-04-13 16:50 533K
20260413T12Z_MSC_GDPS_GeopotentialHeight_IsbL-0700_LatLon0.15_PT177H.grib2 2026-04-13 16:50 684K
20260413T12Z_MSC_GDPS_GeopotentialHeight_IsbL-0850_LatLon0.15_PT177H.grib2 2026-04-13 16:50 713K
20260413T12Z_MSC_GDPS_GeopotentialHeight_IsbL-0925_LatLon0.15_PT177H.grib2 2026-04-13 16:50 730K
20260413T12Z_MSC_GDPS_GeopotentialHeight_IsbL-1000_LatLon0.15_PT177H.grib2 2026-04-13 16:50 786K
20260413T12Z_MSC_GDPS_IcePellets-Accum_Sfc_LatLon0.15_PT177H.grib2 2026-04-13 16:50 220K
20260413T12Z_MSC_GDPS_LatentHeatNetFlux_Sfc_LatLon0.15_PT177H.grib2 2026-04-13 16:50 491K
20260413T12Z_MSC_GDPS_O3MixingRatio_LatLon0.15_PT177H.grib2 2026-04-13 17:07 1.9M
20260413T12Z_MSC_GDPS_O3_EAtm_LatLon0.15_PT177H.grib2 2026-04-13 17:07 2.5M
20260413T12Z_MSC_GDPS_PlanetaryBoundaryLayerHeight_Sfc_LatLon0.15_PT177H.grib2 2026-04-13 16:50 2.4M
20260413T12Z_MSC_GDPS_Precip-Accum_Sfc_LatLon0.15_PT177H.grib2 2026-04-13 16:50 4.9M
20260413T12Z_MSC_GDPS_PrecipRate_Sfc_LatLon0.15_PT177H.grib2 2026-04-13 16:50 2.9M
20260413T12Z_MSC_GDPS_Pressure_MSL_LatLon0.15_PT177H.grib2 2026-04-13 16:50 723K
20260413T12Z_MSC_GDPS_Pressure_Sfc_LatLon0.15_PT177H.grib2 2026-04-13 16:50 1.1M
20260413T12Z_MSC_GDPS_RadiativeTemp_Sfc_LatLon0.15_PT177H.grib2 2026-04-13 16:50 665K
20260413T12Z_MSC_GDPS_Rain-Accum_Sfc_LatLon0.15_PT177H.grib2 2026-04-13 16:50 4.1M
20260413T12Z_MSC_GDPS_RelativeHumidity_AGL-2m_LatLon0.15_PT177H.grib2 2026-04-13 16:50 1.0M
20260413T12Z_MSC_GDPS_Runoff-Accum_Sfc_LatLon0.15_PT177H.grib2 2026-04-13 16:50 101K
20260413T12Z_MSC_GDPS_SensibleHeatNetFlux_Sfc_LatLon0.15_PT177H.grib2 2026-04-13 16:50 435K
20260413T12Z_MSC_GDPS_Snow-Accum_Sfc_LatLon0.15_PT177H.grib2 2026-04-13 16:50 1.9M
20260413T12Z_MSC_GDPS_SnowDepth_Sfc_LatLon0.15_PT177H.grib2 2026-04-13 16:50 1.8M
20260413T12Z_MSC_GDPS_SoilTemp_DBS-0to10cm_LatLon0.15_PT177H.grib2 2026-04-13 16:50 511K
20260413T12Z_MSC_GDPS_SoilTemp_Sfc_LatLon0.15_PT177H.grib2 2026-04-13 16:50 578K
20260413T12Z_MSC_GDPS_SoilVolumetricWaterContent_DBS-0to10cm_LatLon0.15_PT177H.grib2 2026-04-13 16:50 553K
20260413T12Z_MSC_GDPS_SoilVolumetricWaterContent_DBS-0to1cm_LatLon0.15_PT177H.grib2 2026-04-13 16:50 650K
20260413T12Z_MSC_GDPS_SpecificHumidity_AGL-120m_LatLon0.15_PT177H.grib2 2026-04-13 16:50 1.1M
20260413T12Z_MSC_GDPS_SpecificHumidity_AGL-2m_LatLon0.15_PT177H.grib2 2026-04-13 16:50 1.2M
20260413T12Z_MSC_GDPS_SpecificHumidity_AGL-40m_LatLon0.15_PT177H.grib2 2026-04-13 16:50 1.1M
20260413T12Z_MSC_GDPS_SpecificHumidity_AGL-80m_LatLon0.15_PT177H.grib2 2026-04-13 16:50 1.1M
20260413T12Z_MSC_GDPS_SpecificHumidity_IsbL-0001_LatLon0.15_PT177H.grib2 2026-04-13 16:50 1.1M
20260413T12Z_MSC_GDPS_SpecificHumidity_IsbL-0005_LatLon0.15_PT177H.grib2 2026-04-13 16:50 1.0M
20260413T12Z_MSC_GDPS_SpecificHumidity_IsbL-0500_LatLon0.15_PT177H.grib2 2026-04-13 16:50 1.5M
20260413T12Z_MSC_GDPS_SpecificHumidity_IsbL-0700_LatLon0.15_PT177H.grib2 2026-04-13 16:50 1.6M
20260413T12Z_MSC_GDPS_SpecificHumidity_IsbL-0850_LatLon0.15_PT177H.grib2 2026-04-13 16:50 1.9M
20260413T12Z_MSC_GDPS_SpecificHumidity_IsbL-0925_LatLon0.15_PT177H.grib2 2026-04-13 16:50 1.6M
20260413T12Z_MSC_GDPS_SpecificHumidity_IsbL-1000_LatLon0.15_PT177H.grib2 2026-04-13 16:50 1.5M
20260413T12Z_MSC_GDPS_SpecificHumidity_Sfc_LatLon0.15_PT177H.grib2 2026-04-13 16:50 657K
20260413T12Z_MSC_GDPS_Thickness_IsbL-0850to0700_LatLon0.15_PT177H.grib2 2026-04-13 16:50 470K
20260413T12Z_MSC_GDPS_Thickness_IsbL-1000to0500_LatLon0.15_PT177H.grib2 2026-04-13 16:50 379K
20260413T12Z_MSC_GDPS_Thickness_IsbL-1000to0850_LatLon0.15_PT177H.grib2 2026-04-13 16:50 490K
20260413T12Z_MSC_GDPS_TotalCloudCover_Sfc_LatLon0.15_PT177H.grib2 2026-04-13 16:50 819K
20260413T12Z_MSC_GDPS_UVIndex-ClearSky_Sfc_LatLon0.15_PT177H.grib2 2026-04-13 17:07 1.0M
20260413T12Z_MSC_GDPS_UVIndex_Sfc_LatLon0.15_PT177H.grib2 2026-04-13 17:07 1.5M
20260413T12Z_MSC_GDPS_UpwardLongwaveRadiationFlux_NTAtm_LatLon0.15_PT177H.grib2 2026-04-13 16:50 1.1M
20260413T12Z_MSC_GDPS_VerticalVelocity_IsbL-0500_LatLon0.15_PT177H.grib2 2026-04-13 16:50 1.0M
20260413T12Z_MSC_GDPS_VerticalVelocity_IsbL-0700_LatLon0.15_PT177H.grib2 2026-04-13 16:50 1.1M
20260413T12Z_MSC_GDPS_VerticalVelocity_IsbL-0850_LatLon0.15_PT177H.grib2 2026-04-13 16:50 1.6M
20260413T12Z_MSC_GDPS_WindDir_AGL-10m_LatLon0.15_PT177H.grib2 2026-04-13 16:50 1.4M
20260413T12Z_MSC_GDPS_WindDir_AGL-120m_LatLon0.15_PT177H.grib2 2026-04-13 16:50 1.4M
20260413T12Z_MSC_GDPS_WindDir_AGL-40m_LatLon0.15_PT177H.grib2 2026-04-13 16:50 1.4M
20260413T12Z_MSC_GDPS_WindDir_AGL-80m_LatLon0.15_PT177H.grib2 2026-04-13 16:50 1.4M
20260413T12Z_MSC_GDPS_WindDir_IsbL-0001_LatLon0.15_PT177H.grib2 2026-04-13 16:50 643K
20260413T12Z_MSC_GDPS_WindDir_IsbL-0005_LatLon0.15_PT177H.grib2 2026-04-13 16:50 792K
20260413T12Z_MSC_GDPS_WindDir_IsbL-0500_LatLon0.15_PT177H.grib2 2026-04-13 16:50 1.4M
20260413T12Z_MSC_GDPS_WindDir_IsbL-0700_LatLon0.15_PT177H.grib2 2026-04-13 16:50 1.6M
20260413T12Z_MSC_GDPS_WindDir_IsbL-0850_LatLon0.15_PT177H.grib2 2026-04-13 16:50 1.9M
20260413T12Z_MSC_GDPS_WindDir_IsbL-0925_LatLon0.15_PT177H.grib2 2026-04-13 16:50 2.0M
20260413T12Z_MSC_GDPS_WindDir_IsbL-1000_LatLon0.15_PT177H.grib2 2026-04-13 16:50 2.1M
20260413T12Z_MSC_GDPS_WindGust-Max_AGL-10m_LatLon0.15_PT177H.grib2 2026-04-13 16:50 2.2M
20260413T12Z_MSC_GDPS_WindGust-Min_AGL-10m_LatLon0.15_PT177H.grib2 2026-04-13 16:50 2.2M
20260413T12Z_MSC_GDPS_WindGust_AGL-10m_LatLon0.15_PT177H.grib2 2026-04-13 16:50 2.2M
20260413T12Z_MSC_GDPS_WindSpeed_AGL-10m_LatLon0.15_PT177H.grib2 2026-04-13 16:50 1.1M
20260413T12Z_MSC_GDPS_WindSpeed_AGL-120m_LatLon0.15_PT177H.grib2 2026-04-13 16:50 1.3M
20260413T12Z_MSC_GDPS_WindSpeed_AGL-40m_LatLon0.15_PT177H.grib2 2026-04-13 16:50 1.3M
20260413T12Z_MSC_GDPS_WindSpeed_AGL-80m_LatLon0.15_PT177H.grib2 2026-04-13 16:50 1.3M
20260413T12Z_MSC_GDPS_WindSpeed_IsbL-0001_LatLon0.15_PT177H.grib2 2026-04-13 16:50 636K
20260413T12Z_MSC_GDPS_WindSpeed_IsbL-0005_LatLon0.15_PT177H.grib2 2026-04-13 16:50 609K
20260413T12Z_MSC_GDPS_WindSpeed_IsbL-0500_LatLon0.15_PT177H.grib2 2026-04-13 16:50 1.1M
20260413T12Z_MSC_GDPS_WindSpeed_IsbL-0700_LatLon0.15_PT177H.grib2 2026-04-13 16:50 1.5M
20260413T12Z_MSC_GDPS_WindSpeed_IsbL-0850_LatLon0.15_PT177H.grib2 2026-04-13 16:50 1.7M
20260413T12Z_MSC_GDPS_WindSpeed_IsbL-0925_LatLon0.15_PT177H.grib2 2026-04-13 16:50 1.8M
20260413T12Z_MSC_GDPS_WindSpeed_IsbL-1000_LatLon0.15_PT177H.grib2 2026-04-13 16:50 1.9M
20260413T12Z_MSC_GDPS_WindU_AGL-10m_LatLon0.15_PT177H.grib2 2026-04-13 16:50 1.3M
20260413T12Z_MSC_GDPS_WindU_AGL-120m_LatLon0.15_PT177H.grib2 2026-04-13 16:50 1.0M
20260413T12Z_MSC_GDPS_WindU_AGL-40m_LatLon0.15_PT177H.grib2 2026-04-13 16:50 1.0M
20260413T12Z_MSC_GDPS_WindU_AGL-80m_LatLon0.15_PT177H.grib2 2026-04-13 16:50 1.0M
20260413T12Z_MSC_GDPS_WindU_IsbL-0001_LatLon0.15_PT177H.grib2 2026-04-13 16:50 638K
20260413T12Z_MSC_GDPS_WindU_IsbL-0005_LatLon0.15_PT177H.grib2 2026-04-13 16:50 689K
20260413T12Z_MSC_GDPS_WindU_IsbL-0500_LatLon0.15_PT177H.grib2 2026-04-13 16:50 1.1M
20260413T12Z_MSC_GDPS_WindU_IsbL-0700_LatLon0.15_PT177H.grib2 2026-04-13 16:50 1.2M
20260413T12Z_MSC_GDPS_WindU_IsbL-0850_LatLon0.15_PT177H.grib2 2026-04-13 16:50 1.4M
20260413T12Z_MSC_GDPS_WindU_IsbL-0925_LatLon0.15_PT177H.grib2 2026-04-13 16:50 1.5M
20260413T12Z_MSC_GDPS_WindU_IsbL-1000_LatLon0.15_PT177H.grib2 2026-04-13 16:50 1.4M
20260413T12Z_MSC_GDPS_WindV_AGL-10m_LatLon0.15_PT177H.grib2 2026-04-13 16:50 1.6M
20260413T12Z_MSC_GDPS_WindV_AGL-120m_LatLon0.15_PT177H.grib2 2026-04-13 16:50 1.0M
20260413T12Z_MSC_GDPS_WindV_AGL-40m_LatLon0.15_PT177H.grib2 2026-04-13 16:50 1.2M
20260413T12Z_MSC_GDPS_WindV_AGL-80m_LatLon0.15_PT177H.grib2 2026-04-13 16:50 1.0M
20260413T12Z_MSC_GDPS_WindV_IsbL-0001_LatLon0.15_PT177H.grib2 2026-04-13 16:50 761K
20260413T12Z_MSC_GDPS_WindV_IsbL-0005_LatLon0.15_PT177H.grib2 2026-04-13 16:50 776K
20260413T12Z_MSC_GDPS_WindV_IsbL-0500_LatLon0.15_PT177H.grib2 2026-04-13 16:50 886K
20260413T12Z_MSC_GDPS_WindV_IsbL-0700_LatLon0.15_PT177H.grib2 2026-04-13 16:50 1.2M
20260413T12Z_MSC_GDPS_WindV_IsbL-0850_LatLon0.15_PT177H.grib2 2026-04-13 16:50 1.4M
20260413T12Z_MSC_GDPS_WindV_IsbL-0925_LatLon0.15_PT177H.grib2 2026-04-13 16:50 1.5M
20260413T12Z_MSC_GDPS_WindV_IsbL-1000_LatLon0.15_PT177H.grib2 2026-04-13 16:50 1.4M